When you browse on this site, cookies collect data to enhance your experience and personalize the content and advertising you see.
Visit our Privacy Policy to learn more. By continuing to use the site, you agree to this use of cookies and data.
  • en France
  • Liste des pays
  • À 7 jours
  • Température de l'eau
  • Carte satellitaire
  • Carte météo
  • Widgets météo
  • user-avatar
    Se connecter

    Météo par heure à Malanje

    Ce jour, 16 Novembre, Vendredi

    Heure Température Précipitation Vent Pression Humidité
    00:00 +20°C° 0 mm 2 m/s 665 mmHg 96%
    01:00 +20°C° 0 mm 2 m/s 665 mmHg 97%
    02:00 +20°C° 0 mm 2 m/s 665 mmHg 97%
    03:00 +20°C° 0 mm 2 m/s 665 mmHg 97%
    04:00 +20°C° 0 mm 2 m/s 664 mmHg 97%
    05:00 +20°C° 0 mm 2 m/s 665 mmHg 95%
    06:00 +20°C° 0 mm 2 m/s 665 mmHg 93%
    07:00 +21°C° 0 mm 2 m/s 666 mmHg 89%
    08:00 +24°C° 0 mm 2 m/s 666 mmHg 80%
    09:00 +27°C° 0 mm 1 m/s 666 mmHg 70%
    10:00 +29°C° 0 mm 1 m/s 667 mmHg 60%
    11:00 +30°C° 0 mm 1 m/s 667 mmHg 56%
    12:00 +31°C° 0 mm 1 m/s 666 mmHg 52%
    13:00 +33°C° 0 mm 1 m/s 666 mmHg 47%
    14:00 +32°C° 0 mm 1 m/s 666 mmHg 49%
    15:00 +31°C° 0 mm 1 m/s 665 mmHg 51%
    16:00 +30°C° 0 mm 1 m/s 665 mmHg 53%
    17:00 +28°C° 0.2 mm 1 m/s 665 mmHg 60%
    18:00 +26°C° 0.2 mm 1 m/s 665 mmHg 66%
    19:00 +24°C° 0.2 mm 1 m/s 664 mmHg 73%
    20:00 +24°C° 0.1 mm 1 m/s 665 mmHg 75%
    21:00 +23°C° 0.1 mm 1 m/s 666 mmHg 77%
    22:00 +23°C° 0.1 mm 2 m/s 666 mmHg 78%
    23:00 +21°C° 0 mm 2 m/s 666 mmHg 82%

    Demain, 17 Novembre, Samedi

    Heure Température Précipitation Vent Pression Humidité
    00:00 +21°C° 0 mm 2 m/s 666 mmHg 86%
    01:00 +21°C° 0 mm 1 m/s 665 mmHg 90%
    02:00 +21°C° 0.1 mm 1 m/s 665 mmHg 92%
    03:00 +21°C° 0.1 mm 1 m/s 665 mmHg 93%
    04:00 +21°C° 0.1 mm 1 m/s 665 mmHg 94%
    05:00 +20°C° 0 mm 2 m/s 666 mmHg 93%
    06:00 +21°C° 0 mm 2 m/s 666 mmHg 91%
    07:00 +21°C° 0 mm 2 m/s 666 mmHg 89%
    08:00 +24°C° 0 mm 2 m/s 667 mmHg 80%
    09:00 +26°C° 0 mm 2 m/s 667 mmHg 72%
    10:00 +28°C° 0 mm 2 m/s 668 mmHg 63%
    11:00 +29°C° 0.8 mm 1 m/s 667 mmHg 65%
    12:00 +29°C° 0.8 mm 1 m/s 666 mmHg 67%
    13:00 +29°C° 0.8 mm 1 m/s 666 mmHg 70%
    14:00 +29°C° 1 mm 1 m/s 665 mmHg 72%
    15:00 +28°C° 1 mm 1 m/s 665 mmHg 74%
    16:00 +27°C° 1 mm 1 m/s 664 mmHg 76%
    17:00 +26°C° 0.5 mm 1 m/s 664 mmHg 81%
    18:00 +24°C° 0.5 mm 1 m/s 664 mmHg 85%
    19:00 +22°C° 0.5 mm 1 m/s 664 mmHg 90%
    20:00 +22°C° 0.1 mm 1 m/s 665 mmHg 91%
    21:00 +20°C° 0.1 mm 2 m/s 665 mmHg 92%
    22:00 +20°C° 0.1 mm 2 m/s 666 mmHg 93%
    23:00 +20°C° 0.2 mm 2 m/s 666 mmHg 95%

    Après-demain, 18 Novembre, Dimanche

    Heure Température Précipitation Vent Pression Humidité
    00:00 +20°C° 0.2 mm 2 m/s 666 mmHg 96%
    01:00 +20°C° 0.2 mm 2 m/s 666 mmHg 97%
    02:00 +20°C° 0.2 mm 1 m/s 665 mmHg 98%
    03:00 +20°C° 0.2 mm 1 m/s 665 mmHg 98%
    04:00 +18°C° 0.2 mm 0 m/s 665 mmHg 98%
    05:00 +19°C° 0.1 mm 0 m/s 665 mmHg 96%
    06:00 +19°C° 0.1 mm 0 m/s 666 mmHg 94%
    07:00 +20°C° 0.1 mm 0 m/s 666 mmHg 93%
    08:00 +22°C° 0 mm 0 m/s 667 mmHg 85%
    09:00 +24°C° 0 mm 0 m/s 667 mmHg 77%
    10:00 +28°C° 0 mm 1 m/s 668 mmHg 69%
    11:00 +29°C° 0.4 mm 1 m/s 667 mmHg 65%
    12:00 +28°C° 0.4 mm 0 m/s 666 mmHg 61%
    13:00 +29°C° 0.4 mm 0 m/s 666 mmHg 57%
    14:00 +30°C° 1.3 mm 1 m/s 665 mmHg 61%
    15:00 +29°C° 1.3 mm 1 m/s 664 mmHg 64%
    16:00 +28°C° 1.3 mm 1 m/s 664 mmHg 68%
    17:00 +26°C° 0.5 mm 1 m/s 664 mmHg 73%
    18:00 +25°C° 0.5 mm 1 m/s 664 mmHg 79%
    19:00 +23°C° 0.5 mm 1 m/s 664 mmHg 84%
    20:00 +22°C° 0.2 mm 1 m/s 664 mmHg 86%
    21:00 +22°C° 0.2 mm 1 m/s 665 mmHg 88%
    22:00 +21°C° 0.2 mm 1 m/s 665 mmHg 91%
    23:00 +21°C° 1.1 mm 1 m/s 665 mmHg 93%

    19 Novembre, Lundi

    Heure Température Précipitation Vent Pression Humidité
    00:00 +21°C° 1.1 mm 1 m/s 665 mmHg 95%
    01:00 +20°C° 1.1 mm 1 m/s 665 mmHg 97%
    02:00 +20°C° 0.6 mm 1 m/s 664 mmHg 97%
    03:00 +20°C° 0.6 mm 1 m/s 664 mmHg 97%
    04:00 +20°C° 0.6 mm 1 m/s 664 mmHg 97%
    05:00 +21°C° 0.8 mm 1 m/s 665 mmHg 97%
    06:00 +21°C° 0.8 mm 1 m/s 666 mmHg 96%
    07:00 +21°C° 0.8 mm 1 m/s 666 mmHg 95%
    08:00 +22°C° 0.2 mm 1 m/s 666 mmHg 89%
    09:00 +24°C° 0.2 mm 1 m/s 666 mmHg 84%
    10:00 +25°C° 0.2 mm 1 m/s 667 mmHg 78%
    11:00 +26°C° 0.5 mm 1 m/s 666 mmHg 72%
    12:00 +28°C° 0.5 mm 1 m/s 666 mmHg 66%
    13:00 +30°C° 0.5 mm 1 m/s 665 mmHg 60%
    14:00 +29°C° 0.6 mm 1 m/s 664 mmHg 62%
    15:00 +28°C° 0.6 mm 1 m/s 664 mmHg 64%
    16:00 +28°C° 0.6 mm 1 m/s 663 mmHg 66%
    17:00 +26°C° 0.5 mm 1 m/s 664 mmHg 73%
    18:00 +24°C° 0.5 mm 1 m/s 664 mmHg 79%
    19:00 +22°C° 0.5 mm 1 m/s 664 mmHg 86%
    20:00 +22°C° 0.5 mm 1 m/s 664 mmHg 87%
    21:00 +21°C° 0.5 mm 1 m/s 665 mmHg 89%
    22:00 +21°C° 0.5 mm 1 m/s 665 mmHg 90%
    23:00 +21°C° 0.2 mm 1 m/s 665 mmHg 92%

    20 Novembre, Mardi

    Heure Température Précipitation Vent Pression Humidité
    00:00 +20°C° 0.2 mm 1 m/s 664 mmHg 94%
    01:00 +20°C° 0.2 mm 1 m/s 664 mmHg 95%
    02:00 +20°C° 0 mm 1 m/s 664 mmHg 96%
    03:00 +20°C° 0 mm 1 m/s 664 mmHg 97%
    04:00 +20°C° 0 mm 1 m/s 664 mmHg 98%
    05:00 +21°C° 0 mm 1 m/s 664 mmHg 97%
    06:00 +20°C° 0 mm 2 m/s 665 mmHg 95%
    07:00 +20°C° 0 mm 2 m/s 666 mmHg 94%
    08:00 +23°C° 0 mm 2 m/s 666 mmHg 87%
    09:00 +25°C° 0 mm 2 m/s 666 mmHg 79%
    10:00 +26°C° 0 mm 1 m/s 666 mmHg 72%
    11:00 +28°C° 0 mm 1 m/s 666 mmHg 66%
    12:00 +29°C° 0 mm 2 m/s 665 mmHg 59%
    13:00 +31°C° 0 mm 2 m/s 665 mmHg 53%
    14:00 +30°C° 0.9 mm 2 m/s 664 mmHg 59%
    15:00 +29°C° 0.9 mm 1 m/s 664 mmHg 64%
    16:00 +28°C° 0.9 mm 1 m/s 663 mmHg 70%
    17:00 +26°C° 1.2 mm 2 m/s 664 mmHg 76%
    18:00 +24°C° 1.2 mm 2 m/s 664 mmHg 82%
    19:00 +21°C° 1.2 mm 2 m/s 664 mmHg 87%
    20:00 +21°C° 0 mm 2 m/s 664 mmHg 88%
    21:00 +20°C° 0 mm 2 m/s 664 mmHg 89%
    22:00 +20°C° 0 mm 2 m/s 665 mmHg 91%
    23:00 +20°C° 0.1 mm 2 m/s 665 mmHg 93%

    21 Novembre, Mercredi

    Heure Température Précipitation Vent Pression Humidité
    00:00 +20°C° 0.1 mm 2 m/s 664 mmHg 94%
    01:00 +20°C° 0.1 mm 2 m/s 664 mmHg 96%
    02:00 +19°C° 0.5 mm 2 m/s 664 mmHg 97%
    03:00 +19°C° 0.5 mm 2 m/s 664 mmHg 97%
    04:00 +20°C° 0.5 mm 1 m/s 664 mmHg 98%
    05:00 +21°C° 0.1 mm 1 m/s 665 mmHg 97%
    06:00 +21°C° 0.1 mm 1 m/s 665 mmHg 96%
    07:00 +21°C° 0.1 mm 1 m/s 666 mmHg 94%
    08:00 +23°C° 0.7 mm 1 m/s 666 mmHg 90%
    09:00 +24°C° 0.7 mm 1 m/s 666 mmHg 86%
    10:00 +26°C° 0.7 mm 1 m/s 667 mmHg 82%
    11:00 +26°C° 1.2 mm 1 m/s 666 mmHg 80%
    12:00 +26°C° 1.2 mm 1 m/s 665 mmHg 78%
    13:00 +26°C° 1.2 mm 1 m/s 665 mmHg 76%
    14:00 +26°C° 1 mm 1 m/s 664 mmHg 79%
    15:00 +25°C° 1 mm 1 m/s 664 mmHg 83%
    16:00 +25°C° 1 mm 1 m/s 663 mmHg 87%
    17:00 +24°C° 0.4 mm 1 m/s 664 mmHg 89%
    18:00 +23°C° 0.4 mm 1 m/s 664 mmHg 90%
    19:00 +22°C° 0.4 mm 1 m/s 664 mmHg 92%
    20:00 +21°C° 0.3 mm 1 m/s 665 mmHg 93%
    21:00 +21°C° 0.3 mm 1 m/s 665 mmHg 93%
    22:00 +21°C° 0.3 mm 1 m/s 665 mmHg 94%
    23:00 +20°C° 0.1 mm 1 m/s 664 mmHg 94%
    Voir plus